QPF
0.02 0.01 0.01 0.00 0.00 0.01 0.02 0.02 0.01 0.00 0.01 0.02 0.02 0.01 0.01 0.01 0.01 0.01 0.01 0.01 0.01 0.00 0.00 0.00 0.01 0.00 0.00 0.01 0.01 0.03 0.04 0.03 0.03 0.03 0.03 0.02 0.02 0.02 0.02 0.01 0.01 0.01 0.02
0.02 0.01 0.00 0.01 0.00 0.01 0.02 0.02 0.02 0.01 0.01 0.02 0.02 0.02 0.01 0.01 0.01 0.01 0.01 0.01 0.01 0.01 0.00 0.00 0.01 0.01 0.02 0.03 0.02 0.03 0.04 0.04 0.04 0.05 0.05 0.05 0.03 0.02 0.01 0.01 0.01 0.01 0.02
0.02 0.01 0.01 0.01 0.00 0.01 0.02 0.03 0.03 0.01 0.01 0.01 0.02 0.01 0.01 0.01 0.01 0.01 0.01 0.01 0.01 0.01 0.01 0.01 0.01 0.01 0.02 0.03 0.03 0.03 0.04 0.05 0.05 0.04 0.07 0.06 0.04 0.02 0.01 0.01 0.02 0.02 0.03
0.01 0.01 0.00 0.01 0.01 0.01 0.01 0.04 0.04 0.02 0.01 0.01 0.01 0.01 0.02 0.02 0.01 0.01 0.01 0.01 0.01 0.01 0.01 0.01 0.01 0.02 0.02 0.02 0.02 0.02 0.04 0.06 0.06 0.05 0.04 0.04 0.03 0.03 0.02 0.01 0.01 0.01 0.03
0.01 0.01 0.01 0.00 0.01 0.01 0.01 0.02 0.03 0.02 0.02 0.01 0.01 0.02 0.03 0.03 0.02 0.01 0.01 0.00 0.00 0.00 0.00 0.00 0.01 0.01 0.01 0.01 0.01 0.02 0.03 0.05 0.06 0.06 0.04 0.03 0.04 0.03 0.02 0.02 0.01 0.01 0.01
0.01 0.01 0.01 0.00 0.01 0.01 0.01 0.02 0.04 0.02 0.02 0.01 0.01 0.01 0.02 0.03 0.03 0.02 0.01 0.01 0.01 0.01 0.00 0.00 0.00 0.01 0.01 0.01 0.02 0.02 0.02 0.03 0.03 0.04 0.05 0.05 0.05 0.03 0.03 0.02 0.01 0.01 0.01
0.00 0.01 0.01 0.00 0.01 0.01 0.01 0.02 0.03 0.02 0.02 0.01 0.01 0.01 0.01 0.03 0.03 0.03 0.02 0.03 0.03 0.02 0.01 0.00 0.01 0.00 0.00 0.00 0.01 0.02 0.02 0.02 0.01 0.02 0.03 0.03 0.04 0.03 0.02 0.02 0.01 0.01 0.01
0.00 0.01 0.01 0.01 0.01 0.01 0.01 0.01 0.02 0.03 0.02 0.02 0.01 0.01 0.01 0.02 0.02 0.02 0.03 0.03 0.03 0.03 0.02 0.01 0.01 0.00 0.00 0.00 0.01 0.01 0.01 0.01 0.01 0.01 0.01 0.02 0.02 0.02 0.02 0.02 0.02 0.01 0.02
0.01 0.01 0.01 0.01 0.01 0.01 0.01 0.01 0.02 0.02 0.02 0.03 0.02 0.02 0.01 0.02 0.02 0.01 0.01 0.02 0.03 0.02 0.01 0.01 0.01 0.01 0.00 0.00 0.00 0.01 0.01 0.01 0.01 0.01 0.01 0.01 0.01 0.01 0.01 0.02 0.02 0.02 0.02
0.01 0.02 0.02 0.01 0.01 0.00 0.00 0.01 0.01 0.02 0.02 0.03 0.03 0.03 0.01 0.01 0.01 0.01 0.01 0.01 0.01 0.01 0.00 0.00 0.00 0.00 0.00 0.00 0.00 0.00 0.00 0.00 0.01 0.01 0.01 0.01 0.01 0.01 0.01 0.01 0.02 0.01 0.01
0.01 0.01 0.01 0.01 0.00 0.01 0.01 0.01 0.01 0.02 0.02 0.02 0.02 0.02 0.02 0.01 0.01 0.01 0.01 0.00 0.00 0.00 0.00 0.00 0.00 0.00 0.00 0.00 0.00 0.00 0.00 0.00 0.00 0.00 0.00 0.01 0.00 0.01 0.01 0.01 0.01 0.01 0.01
0.02 0.00 0.00 0.01 0.01 0.01 0.01 0.02 0.02 0.02 0.02 0.02 0.02 0.02 0.02 0.02 0.01 0.01 0.01 0.00 0.00 0.00 0.00 0.00 0.00 0.00 0.00 0.00 0.00 0.00 0.00 0.00 0.00 0.00 0.00 0.00 0.00 0.00 0.00 0.00 0.01 0.01 0.01
0.01 0.00 0.00 0.00 0.01 0.01 0.02 0.02 0.02 0.01 0.01 0.03 0.03 0.03 0.02 0.02 0.01 0.01 0.00 0.00 0.00 0.00 0.00 0.00 0.00 0.00 0.00 0.00 0.01 0.01 0.00 0.00 0.00 0.00 0.00 0.00 0.00 0.00 0.00 0.00 0.00 0.00 0.00
0.01 0.01 0.00 0.00 0.00 0.01 0.01 0.02 0.03 0.02 0.01 0.02 0.02 0.02 0.02 0.02 0.01 0.01 0.00 0.00 0.00 0.00 0.00 0.00 0.00 0.00 0.00 0.00 0.00 0.01 0.01 0.01 0.01 0.00 0.00 0.00 0.00 0.00 0.00 0.00 0.00 0.00 0.00
0.01 0.00 0.00 0.00 0.00 0.00 0.01 0.01 0.01 0.01 0.01 0.01 0.02 0.02 0.02 0.03 0.02 0.01 0.01 0.01 0.01 0.00 0.00 0.00 0.00 0.00 0.00 0.00 0.00 0.01 0.01 0.01 0.01 0.01 0.00 0.00 0.00 0.00 0.00 0.00 0.00 0.00 0.00
0.00 0.00 0.00 0.00 0.00 0.00 0.00 0.01 0.02 0.02 0.03 0.02 0.02 0.02 0.02 0.03 0.03 0.02 0.01 0.01 0.01 0.01 0.01 0.01 0.00 0.00 0.00 0.00 0.00 0.01 0.01 0.01 0.01 0.01 0.01 0.00 0.00 0.00 0.00 0.00 0.00 0.00 0.01
0.00 0.00 0.00 0.00 0.00 0.00 0.00 0.01 0.02 0.03 0.03 0.02 0.02 0.02 0.01 0.01 0.02 0.01 0.01 0.01 0.02 0.02 0.02 0.02 0.01 0.01 0.00 0.00 0.00 0.00 0.00 0.01 0.01 0.01 0.02 0.01 0.00 0.00 0.00 0.00 0.00 0.00 0.01
0.00 0.00 0.00 0.00 0.00 0.00 0.00 0.01 0.01 0.01 0.02 0.02 0.02 0.01 0.02 0.02 0.02 0.02 0.01 0.01 0.01 0.01 0.01 0.01 0.00 0.00 0.00 0.01 0.00 0.00 0.01 0.01 0.01 0.01 0.01 0.02 0.01 0.01 0.01 0.01 0.00 0.00 0.00
0.00 0.00 0.00 0.00 0.00 0.00 0.00 0.01 0.01 0.02 0.02 0.02 0.02 0.01 0.02 0.02 0.02 0.03 0.02 0.02 0.01 0.01 0.01 0.00 0.01 0.01 0.01 0.00 0.00 0.00 0.01 0.01 0.01 0.01 0.01 0.01 0.01 0.01 0.01 0.01 0.00 0.00 0.00
0.00 0.00 0.00 0.00 0.00 0.00 0.00 0.00 0.01 0.02 0.02 0.02 0.01 0.01 0.01 0.01 0.02 0.02 0.02 0.02 0.02 0.01 0.01 0.01 0.01 0.01 0.01 0.01 0.01 0.01 0.01 0.01 0.01 0.01 0.01 0.01 0.01 0.01 0.01 0.01 0.00 0.00 0.00
0.00 0.00 0.00 0.00 0.00 0.00 0.00 0.00 0.01 0.02 0.02 0.02 0.01 0.01 0.01 0.01 0.02 0.02 0.03 0.02 0.02 0.01 0.01 0.01 0.01 0.01 0.01 0.01 0.02 0.01 0.01 0.01 0.01 0.01 0.01 0.01 0.01 0.01 0.01 0.01 0.00 0.00 0.00
0.00 0.00 0.00 0.00 0.00 0.00 0.01 0.01 0.01 0.01 0.01 0.02 0.02 0.02 0.01 0.01 0.01 0.02 0.03 0.03 0.02 0.01 0.01 0.00 0.01 0.01 0.01 0.01 0.01 0.01 0.01 0.01 0.01 0.01 0.02 0.02 0.02 0.02 0.02 0.02 0.02 0.01 0.01
0.00 0.00 0.00 0.00 0.01 0.01 0.01 0.01 0.01 0.01 0.01 0.01 0.01 0.01 0.01 0.02 0.02 0.03 0.03 0.03 0.03 0.02 0.01 0.01 0.01 0.01 0.01 0.01 0.01 0.01 0.01 0.01 0.02 0.02 0.02 0.03 0.03 0.02 0.02 0.02 0.02 0.02 0.01
0.00 0.00 0.00 0.01 0.01 0.01 0.01 0.02 0.02 0.01 0.01 0.01 0.01 0.01 0.01 0.02 0.04 0.04 0.03 0.03 0.03 0.03 0.03 0.02 0.02 0.02 0.02 0.02 0.02 0.02 0.01 0.01 0.02 0.02 0.03 0.03 0.03 0.03 0.03 0.02 0.02 0.02 0.01
0.01 0.01 0.01 0.01 0.01 0.02 0.01 0.02 0.02 0.02 0.01 0.02 0.02 0.03 0.03 0.03 0.04 0.04 0.04 0.04 0.04 0.04 0.04 0.03 0.03 0.02 0.02 0.01 0.02 0.03 0.02 0.02 0.02 0.02 0.03 0.03 0.03 0.03 0.03 0.03 0.02 0.02 0.02
0.01 0.01 0.01 0.01 0.01 0.02 0.02 0.03 0.02 0.02 0.02 0.02 0.02 0.02 0.03 0.03 0.03 0.03 0.03 0.03 0.03 0.03 0.03 0.02 0.02 0.01 0.01 0.01 0.02 0.02 0.03 0.03 0.03 0.02 0.02 0.02 0.02 0.03 0.03 0.03 0.03 0.03 0.03
MSLP
1014.35 1014.38 1014.43 1014.50 1014.57 1014.66 1014.78 1014.91 1015.08 1015.26 1015.44 1015.62 1015.77 1015.89 1015.96 1015.99 1015.99 1015.98 1015.98 1016.01 1016.10 1016.26 1016.49 1016.81 1017.19 1017.63 1018.10 1018.58 1019.06 1019.51 1019.93 1020.30 1020.62 1020.88 1021.07 1021.20 1021.26 1021.24 1021.17 1021.03 1020.85 1020.64 1020.41
1014.29 1014.47 1014.64 1014.78 1014.90 1014.99 1015.08 1015.18 1015.31 1015.47 1015.67 1015.88 1016.08 1016.25 1016.38 1016.45 1016.46 1016.45 1016.43 1016.43 1016.49 1016.63 1016.85 1017.17 1017.57 1018.01 1018.48 1018.95 1019.40 1019.81 1020.17 1020.49 1020.76 1020.99 1021.18 1021.34 1021.46 1021.54 1021.58 1021.57 1021.51 1021.42 1021.31
1014.25 1014.57 1014.84 1015.05 1015.19 1015.27 1015.32 1015.38 1015.47 1015.61 1015.82 1016.06 1016.31 1016.55 1016.74 1016.85 1016.90 1016.89 1016.86 1016.84 1016.88 1016.99 1017.20 1017.51 1017.89 1018.32 1018.77 1019.21 1019.61 1019.97 1020.27 1020.53 1020.76 1020.96 1021.16 1021.36 1021.55 1021.72 1021.87 1021.99 1022.07 1022.11 1022.10
1014.20 1014.62 1014.98 1015.24 1015.40 1015.46 1015.48 1015.49 1015.55 1015.68 1015.89 1016.16 1016.47 1016.77 1017.01 1017.18 1017.27 1017.29 1017.26 1017.23 1017.25 1017.34 1017.53 1017.81 1018.16 1018.57 1018.98 1019.37 1019.72 1020.01 1020.25 1020.46 1020.65 1020.84 1021.05 1021.29 1021.54 1021.81 1022.07 1022.30 1022.50 1022.65 1022.75
1014.08 1014.59 1015.02 1015.32 1015.49 1015.55 1015.54 1015.52 1015.56 1015.68 1015.89 1016.20 1016.55 1016.90 1017.21 1017.44 1017.57 1017.61 1017.60 1017.57 1017.58 1017.65 1017.81 1018.06 1018.38 1018.74 1019.11 1019.45 1019.74 1019.98 1020.17 1020.33 1020.49 1020.68 1020.90 1021.17 1021.48 1021.82 1022.16 1022.49 1022.79 1023.02 1023.20
1013.88 1014.46 1014.94 1015.28 1015.48 1015.54 1015.53 1015.50 1015.52 1015.64 1015.87 1016.19 1016.58 1016.98 1017.33 1017.61 1017.78 1017.85 1017.86 1017.84 1017.85 1017.90 1018.04 1018.26 1018.54 1018.86 1019.18 1019.47 1019.72 1019.91 1020.06 1020.19 1020.33 1020.51 1020.74 1021.03 1021.38 1021.77 1022.18 1022.56 1022.92 1023.22 1023.45
1013.63 1014.25 1014.78 1015.16 1015.38 1015.47 1015.47 1015.45 1015.48 1015.60 1015.84 1016.18 1016.59 1017.01 1017.40 1017.70 1017.90 1018.00 1018.03 1018.03 1018.04 1018.09 1018.21 1018.41 1018.66 1018.94 1019.22 1019.48 1019.68 1019.84 1019.97 1020.08 1020.21 1020.38 1020.62 1020.92 1021.28 1021.69 1022.12 1022.54 1022.92 1023.24 1023.50
1013.36 1014.00 1014.56 1014.98 1015.25 1015.38 1015.41 1015.42 1015.47 1015.61 1015.85 1016.19 1016.60 1017.03 1017.42 1017.74 1017.95 1018.07 1018.12 1018.13 1018.15 1018.20 1018.32 1018.50 1018.73 1018.99 1019.25 1019.48 1019.67 1019.81 1019.92 1020.02 1020.15 1020.32 1020.55 1020.85 1021.21 1021.61 1022.03 1022.44 1022.82 1023.14 1023.41
1013.12 1013.76 1014.34 1014.80 1015.11 1015.29 1015.38 1015.43 1015.51 1015.66 1015.91 1016.25 1016.64 1017.05 1017.43 1017.74 1017.95 1018.08 1018.14 1018.17 1018.20 1018.26 1018.38 1018.56 1018.79 1019.04 1019.29 1019.51 1019.69 1019.83 1019.94 1020.05 1020.17 1020.34 1020.55 1020.84 1021.17 1021.54 1021.94 1022.32 1022.67 1022.98 1023.24
1012.93 1013.56 1014.15 1014.63 1014.98 1015.21 1015.36 1015.47 1015.59 1015.77 1016.03 1016.35 1016.72 1017.10 1017.45 1017.73 1017.93 1018.06 1018.13 1018.17 1018.21 1018.29 1018.43 1018.62 1018.85 1019.10 1019.35 1019.58 1019.77 1019.92 1020.05 1020.16 1020.29 1020.44 1020.64 1020.90 1021.20 1021.53 1021.88 1022.22 1022.54 1022.82 1023.06
1012.81 1013.40 1013.97 1014.46 1014.84 1015.12 1015.32 1015.49 1015.67 1015.88 1016.15 1016.47 1016.82 1017.16 1017.48 1017.73 1017.91 1018.03 1018.10 1018.16 1018.23 1018.33 1018.48 1018.69 1018.93 1019.20 1019.46 1019.70 1019.91 1020.08 1020.22 1020.34 1020.47 1020.62 1020.80 1021.02 1021.28 1021.57 1021.86 1022.16 1022.44 1022.70 1022.92
1012.71 1013.25 1013.78 1014.25 1014.64 1014.96 1015.22 1015.45 1015.68 1015.94 1016.23 1016.56 1016.90 1017.22 1017.51 1017.74 1017.91 1018.03 1018.11 1018.18 1018.27 1018.40 1018.57 1018.79 1019.05 1019.33 1019.61 1019.87 1020.09 1020.28 1020.43 1020.57 1020.70 1020.84 1021.00 1021.19 1021.40 1021.64 1021.89 1022.15 1022.39 1022.63 1022.84
1012.61 1013.06 1013.52 1013.95 1014.33 1014.67 1014.97 1015.26 1015.56 1015.88 1016.22 1016.57 1016.91 1017.24 1017.52 1017.75 1017.92 1018.05 1018.15 1018.25 1018.36 1018.51 1018.71 1018.95 1019.22 1019.50 1019.79 1020.05 1020.29 1020.49 1020.65 1020.79 1020.92 1021.05 1021.19 1021.34 1021.52 1021.72 1021.93 1022.15 1022.37 1022.58 1022.78
1012.44 1012.80 1013.17 1013.53 1013.88 1014.22 1014.56 1014.90 1015.26 1015.65 1016.04 1016.44 1016.83 1017.18 1017.49 1017.74 1017.94 1018.10 1018.23 1018.36 1018.50 1018.67 1018.88 1019.13 1019.40 1019.69 1019.97 1020.23 1020.46 1020.66 1020.82 1020.96 1021.08 1021.20 1021.32 1021.45 1021.59 1021.75 1021.92 1022.11 1022.31 1022.50 1022.70
1012.18 1012.43 1012.70 1012.98 1013.29 1013.62 1013.98 1014.37 1014.79 1015.24 1015.71 1016.17 1016.62 1017.02 1017.38 1017.68 1017.92 1018.13 1018.30 1018.47 1018.65 1018.84 1019.06 1019.31 1019.57 1019.84 1020.10 1020.34 1020.56 1020.75 1020.90 1021.03 1021.14 1021.24 1021.34 1021.44 1021.56 1021.69 1021.83 1021.99 1022.17 1022.35 1022.53
1011.85 1011.98 1012.15 1012.35 1012.60 1012.91 1013.27 1013.70 1014.17 1014.69 1015.22 1015.76 1016.27 1016.75 1017.17 1017.53 1017.84 1018.10 1018.33 1018.55 1018.75 1018.97 1019.19 1019.43 1019.67 1019.92 1020.15 1020.36 1020.55 1020.72 1020.85 1020.97 1021.06 1021.14 1021.22 1021.31 1021.40 1021.50 1021.62 1021.75 1021.90 1022.06 1022.22
1011.47 1011.51 1011.59 1011.72 1011.91 1012.19 1012.55 1012.99 1013.50 1014.06 1014.65 1015.25 1015.83 1016.37 1016.86 1017.29 1017.67 1017.99 1018.28 1018.54 1018.78 1019.01 1019.23 1019.46 1019.68 1019.89 1020.08 1020.26 1020.42 1020.55 1020.66 1020.76 1020.83 1020.90 1020.97 1021.03 1021.10 1021.18 1021.27 1021.38 1021.50 1021.63 1021.76
1011.11 1011.09 1011.11 1011.18 1011.33 1011.57 1011.91 1012.35 1012.87 1013.45 1014.06 1014.70 1015.32 1015.90 1016.45 1016.94 1017.38 1017.76 1018.10 1018.40 1018.67 1018.91 1019.14 1019.35 1019.54 1019.72 1019.88 1020.02 1020.14 1020.25 1020.34 1020.41 1020.47 1020.53 1020.58 1020.63 1020.68 1020.74 1020.81 1020.89 1020.98 1021.07 1021.17
1010.83 1010.79 1010.78 1010.82 1010.94 1011.15 1011.46 1011.87 1012.37 1012.94 1013.55 1014.18 1014.80 1015.41 1015.98 1016.50 1016.98 1017.40 1017.78 1018.12 1018.41 1018.67 1018.90 1019.10 1019.27 1019.42 1019.55 1019.66 1019.76 1019.84 1019.91 1019.97 1020.03 1020.07 1020.12 1020.16 1020.20 1020.24 1020.29 1020.34 1020.40 1020.46 1020.51
1010.68 1010.66 1010.65 1010.69 1010.79 1010.97 1011.25 1011.62 1012.07 1012.59 1013.15 1013.74 1014.33 1014.92 1015.49 1016.02 1016.51 1016.96 1017.36 1017.72 1018.04 1018.31 1018.54 1018.74 1018.90 1019.03 1019.15 1019.24 1019.32 1019.38 1019.44 1019.50 1019.55 1019.59 1019.63 1019.67 1019.70 1019.73 1019.76 1019.79 1019.82 1019.84 1019.85
1010.63 1010.66 1010.70 1010.76 1010.86 1011.03 1011.27 1011.58 1011.97 1012.41 1012.90 1013.42 1013.95 1014.49 1015.02 1015.53 1016.01 1016.46 1016.88 1017.25 1017.58 1017.87 1018.12 1018.32 1018.48 1018.61 1018.72 1018.80 1018.87 1018.93 1018.99 1019.04 1019.09 1019.13 1019.17 1019.21 1019.24 1019.26 1019.28 1019.29 1019.29 1019.29 1019.27
1010.65 1010.77 1010.86 1010.96 1011.08 1011.25 1011.45 1011.71 1012.02 1012.38 1012.78 1013.21 1013.66 1014.13 1014.61 1015.08 1015.55 1015.99 1016.41 1016.79 1017.14 1017.44 1017.69 1017.90 1018.08 1018.21 1018.32 1018.41 1018.48 1018.55 1018.60 1018.66 1018.71 1018.75 1018.79 1018.82 1018.85 1018.87 1018.88 1018.88 1018.87 1018.84 1018.80
1010.67 1010.87 1011.04 1011.19 1011.34 1011.51 1011.69 1011.90 1012.15 1012.43 1012.74 1013.09 1013.47 1013.87 1014.30 1014.73 1015.17 1015.60 1016.01 1016.40 1016.76 1017.07 1017.34 1017.57 1017.76 1017.91 1018.02 1018.12 1018.20 1018.26 1018.32 1018.38 1018.42 1018.47 1018.51 1018.54 1018.57 1018.58 1018.59 1018.58 1018.56 1018.52 1018.47
1010.60 1010.88 1011.12 1011.33 1011.52 1011.69 1011.87 1012.06 1012.26 1012.49 1012.74 1013.03 1013.36 1013.71 1014.09 1014.50 1014.92 1015.34 1015.75 1016.14 1016.51 1016.83 1017.12 1017.36 1017.56 1017.72 1017.85 1017.96 1018.04 1018.11 1018.17 1018.22 1018.26 1018.30 1018.33 1018.36 1018.38 1018.40 1018.40 1018.40 1018.38 1018.34 1018.27
1010.37 1010.71 1011.01 1011.27 1011.50 1011.71 1011.90 1012.09 1012.28 1012.49 1012.72 1012.98 1013.29 1013.62 1013.99 1014.39 1014.80 1015.22 1015.64 1016.04 1016.41 1016.75 1017.04 1017.30 1017.51 1017.68 1017.82 1017.93 1018.01 1018.08 1018.14 1018.18 1018.21 1018.24 1018.27 1018.29 1018.31 1018.32 1018.33 1018.32 1018.31 1018.27 1018.21
1009.95 1010.33 1010.67 1010.98 1011.25 1011.49 1011.71 1011.93 1012.14 1012.37 1012.62 1012.91 1013.22 1013.58 1013.96 1014.38 1014.80 1015.24 1015.66 1016.07 1016.45 1016.80 1017.10 1017.36 1017.58 1017.76 1017.90 1018.01 1018.10 1018.17 1018.22 1018.25 1018.28 1018.30 1018.32 1018.33 1018.34 1018.35 1018.35 1018.35 1018.34 1018.31 1018.26
Thickness
5742 5744 5745 5744 5743 5741 5739 5736 5733 5732 5730 5727 5725 5721 5720 5720 5719 5718 5717 5716 5715 5714 5713 5712 5711 5709 5707 5705 5703 5701 5699 5698 5698 5694 5690 5691 5693 5691 5691 5691 5690 5689 5689
5740 5740 5740 5739 5738 5737 5736 5734 5731 5729 5727 5725 5723 5721 5719 5717 5716 5715 5713 5713 5712 5711 5711 5709 5707 5706 5704 5701 5700 5698 5694 5694 5695 5691 5686 5681 5681 5685 5686 5686 5685 5685 5685
5738 5737 5736 5735 5734 5733 5732 5731 5729 5727 5725 5724 5721 5719 5716 5713 5711 5710 5709 5709 5709 5708 5707 5706 5706 5704 5702 5699 5698 5696 5693 5690 5691 5692 5687 5679 5674 5676 5679 5680 5681 5681 5680
5739 5737 5735 5732 5731 5731 5730 5729 5727 5726 5723 5722 5718 5714 5709 5706 5707 5707 5706 5706 5705 5705 5704 5703 5703 5702 5700 5698 5697 5695 5693 5690 5687 5688 5689 5688 5683 5676 5670 5673 5676 5676 5675
5739 5736 5734 5732 5731 5730 5728 5727 5725 5723 5721 5720 5716 5713 5710 5708 5707 5705 5703 5703 5702 5702 5701 5701 5700 5699 5698 5697 5695 5693 5691 5689 5687 5685 5685 5684 5683 5682 5674 5667 5668 5669 5670
5739 5737 5735 5732 5729 5728 5726 5724 5721 5720 5719 5717 5715 5712 5709 5706 5703 5701 5699 5699 5698 5699 5698 5698 5697 5697 5696 5695 5693 5691 5689 5688 5686 5685 5684 5681 5678 5676 5674 5669 5666 5663 5664
5736 5733 5731 5727 5725 5724 5722 5720 5718 5716 5716 5715 5714 5711 5709 5706 5703 5700 5698 5696 5695 5694 5695 5695 5694 5694 5693 5692 5691 5689 5687 5686 5684 5683 5682 5681 5680 5679 5675 5670 5665 5662 5661
5734 5730 5728 5725 5723 5721 5719 5717 5715 5713 5713 5712 5711 5711 5709 5706 5703 5701 5699 5697 5694 5693 5693 5692 5691 5691 5690 5690 5688 5686 5685 5684 5682 5681 5679 5678 5678 5677 5674 5669 5664 5659 5657
5731 5728 5726 5724 5721 5719 5717 5716 5713 5711 5711 5710 5709 5708 5707 5704 5702 5700 5699 5696 5694 5692 5691 5690 5688 5687 5687 5686 5684 5682 5681 5680 5678 5677 5676 5675 5674 5674 5672 5670 5666 5659 5652
5727 5725 5723 5721 5719 5719 5717 5715 5713 5710 5709 5708 5706 5705 5704 5702 5700 5698 5696 5693 5692 5690 5688 5687 5685 5684 5683 5682 5680 5678 5677 5676 5674 5673 5672 5671 5671 5670 5668 5666 5665 5662 5656
5721 5720 5718 5718 5717 5716 5715 5712 5710 5708 5706 5705 5704 5702 5700 5699 5697 5694 5693 5691 5689 5687 5685 5684 5682 5681 5679 5678 5675 5673 5673 5671 5670 5670 5669 5667 5667 5665 5663 5662 5660 5658 5655
5717 5716 5715 5713 5712 5710 5709 5708 5707 5705 5704 5702 5701 5699 5697 5695 5693 5690 5689 5687 5686 5684 5682 5681 5679 5677 5675 5674 5672 5670 5669 5667 5666 5666 5665 5663 5662 5660 5659 5657 5655 5653 5651
5713 5712 5710 5707 5706 5705 5704 5703 5703 5702 5701 5699 5696 5695 5693 5691 5689 5687 5686 5684 5682 5680 5679 5677 5675 5673 5671 5670 5668 5667 5665 5664 5663 5662 5661 5659 5658 5655 5654 5653 5651 5650 5649
5706 5705 5703 5702 5701 5700 5700 5699 5698 5698 5697 5696 5693 5690 5690 5688 5685 5684 5682 5680 5678 5676 5674 5673 5671 5669 5667 5665 5664 5663 5661 5660 5659 5658 5657 5656 5654 5652 5651 5650 5647 5646 5643
5700 5699 5697 5697 5696 5696 5695 5695 5694 5693 5693 5691 5689 5687 5686 5685 5682 5680 5678 5676 5674 5672 5670 5668 5666 5664 5662 5661 5659 5657 5656 5655 5653 5652 5651 5650 5650 5649 5647 5645 5642 5641 5637
5696 5695 5694 5693 5691 5691 5690 5690 5689 5689 5688 5686 5684 5683 5682 5680 5677 5674 5673 5671 5668 5667 5665 5663 5660 5658 5657 5656 5654 5652 5650 5649 5648 5646 5645 5644 5644 5643 5642 5640 5638 5637 5633
5691 5690 5689 5688 5687 5687 5687 5685 5684 5684 5683 5680 5679 5678 5676 5673 5671 5670 5667 5664 5662 5661 5659 5657 5655 5652 5651 5650 5648 5647 5645 5644 5643 5641 5640 5640 5639 5638 5635 5634 5633 5631 5630
5686 5685 5684 5683 5683 5683 5682 5681 5679 5678 5676 5674 5673 5672 5670 5667 5665 5664 5661 5659 5657 5655 5654 5652 5650 5647 5646 5644 5643 5641 5639 5638 5637 5636 5635 5634 5633 5632 5630 5628 5626 5625 5623
5681 5679 5679 5679 5678 5677 5676 5674 5672 5671 5669 5668 5666 5665 5663 5661 5659 5657 5656 5654 5653 5651 5649 5647 5645 5642 5640 5639 5638 5636 5633 5632 5631 5631 5631 5630 5628 5627 5626 5623 5620 5619 5617
5674 5672 5673 5672 5670 5670 5669 5666 5664 5663 5662 5661 5661 5660 5658 5656 5654 5653 5651 5650 5648 5646 5645 5642 5641 5639 5636 5635 5633 5631 5628 5626 5625 5625 5625 5625 5623 5622 5620 5618 5615 5612 5611
5666 5665 5664 5662 5662 5662 5662 5659 5657 5656 5657 5657 5656 5654 5653 5651 5650 5649 5647 5645 5643 5642 5640 5638 5636 5635 5633 5630 5628 5626 5624 5622 5620 5619 5618 5618 5617 5616 5615 5613 5610 5609 5607
5656 5656 5654 5653 5655 5655 5654 5652 5650 5652 5652 5650 5649 5648 5647 5647 5646 5644 5642 5640 5638 5636 5634 5633 5631 5630 5629 5626 5623 5621 5619 5618 5615 5614 5613 5612 5611 5610 5609 5607 5605 5604 5602
5647 5647 5646 5645 5646 5647 5647 5644 5644 5646 5645 5643 5642 5642 5641 5641 5640 5638 5636 5635 5633 5631 5630 5628 5626 5625 5624 5622 5619 5616 5614 5612 5610 5609 5608 5606 5605 5603 5601 5600 5599 5597 5595
5639 5639 5638 5636 5637 5639 5639 5638 5639 5639 5637 5636 5636 5636 5635 5635 5634 5633 5632 5630 5629 5627 5626 5624 5622 5621 5619 5616 5613 5611 5608 5605 5603 5601 5600 5599 5598 5596 5594 5593 5592 5591 5589
5633 5632 5631 5630 5630 5632 5633 5633 5632 5631 5630 5629 5629 5629 5629 5628 5627 5626 5625 5625 5625 5624 5622 5620 5619 5615 5613 5612 5610 5606 5603 5600 5598 5595 5593 5591 5589 5588 5587 5586 5586 5584 5583
5626 5625 5624 5624 5625 5625 5625 5626 5626 5625 5624 5622 5623 5623 5622 5621 5621 5619 5617 5617 5618 5619 5618 5617 5615 5613 5611 5608 5605 5602 5599 5596 5593 5590 5587 5585 5584 5583 5582 5580 5580 5579 5577